Home   Weather   Kalgoorlie   Past weeks

Flag for Australia Past Weather in Kalgoorlie, Western Australia, Australia — Yesterday and Last 2 Weeks

Now
86 °F

Clear.


Feels Like: 83 °F
Forecast: 63 / 81 °F
Wind: 20 mph from Southwest

Location: Kalgoorlie Boulder Amo

Current Time: Dec 3, 2016 at 7:49:02 pm

Latest Report: Dec 3, 2016 at 7:00 pm


Visibility: N/A

Pressure: 29.62 "Hg

Humidity: 10%

Dew Point: 23 °F

Location of KalgoorlieLocation

Past Weather in Kalgoorlie — Graph

°F

Kalgoorlie Temperature Yesterday

Maximum temperature yesterday: 88 °F (at 4:00 pm)
Minimum temperature yesterday: 57 °F (at 3:00 am)
Average temperature yesterday: 74 °F

High & Low Weather Summary for the Past Weeks

 TemperatureHumidityPressure
High102 °F (Nov 28, 3:00 pm)68% (Dec 2, 4:30 am)30.18 "Hg (Dec 2, 4:30 am)
Low50 °F (Nov 21, 5:00 am)5% (Dec 3, 3:00 pm)29.53 "Hg (Dec 3, 2:00 pm)
Average75 °F30%29.95 "Hg
* Reported Nov 18 6:00 pm — Dec 3 6:30 pm, Kalgoorlie, Weather by CustomWeather, © 2016

Note: Actual official high and low records may vary slightly from our data, if they occured in-between our weather recording intervals... More about our weather records

Advertising

Kalgoorlie Weather History for the Previous 24 Hours

Scroll right to see more
 ConditionsComfort  
Time TempWeatherWind HumidityBarometerVisibility
6:30 pm
Sat, Dec 3
90 °FSunny.17 mph9%29.59 "HgN/A
6:00 pm91 °FSunny.20 mph10%29.59 "HgN/A
5:30 pm93 °FSunny.18 mph9%29.56 "HgN/A
5:00 pm95 °FSunny.20 mph9%29.56 "HgN/A
4:01 pm99 °FSunny.23 mph8%29.53 "HgN/A
3:30 pm100 °FSunny.17 mph7%29.53 "HgN/A
3:00 pm100 °FSunny.18 mph5%29.53 "HgN/A
2:00 pm102 °FSunny.18 mph6%29.53 "HgN/A
1:00 pm100 °FSunny.20 mph7%29.56 "HgN/A
12:30 pm100 °FSunny.17 mph10%29.56 "HgN/A
12:00 pm99 °FSunny.13 mph12%29.56 "HgN/A
11:30 am99 °FSunny.15 mph12%29.59 "HgN/A
11:00 am97 °FSunny.13 mph16%29.59 "HgN/A
10:30 am95 °FSunny.10 mph18%29.62 "HgN/A
10:00 am93 °FSunny.10 mph20%29.62 "HgN/A
9:00 am90 °FSunny.12 mph22%29.65 "HgN/A
8:30 am86 °FSunny.13 mph27%29.65 "HgN/A
8:00 am82 °FSunny.10 mph28%29.68 "HgN/A
7:30 am79 °FSunny.10 mph32%29.68 "HgN/A
7:00 am75 °FSunny.8 mph36%29.68 "HgN/A
6:00 am70 °FSunny.8 mph43%29.68 "HgN/A
5:00 am70 °FSunny.9 mph43%29.68 "HgN/A
4:30 am68 °FClear.9 mph46%29.68 "HgN/A
4:00 am70 °FClear.10 mph43%29.68 "HgN/A
3:30 am72 °FClear.10 mph41%29.68 "HgN/A
3:00 am72 °FClear.9 mph41%29.68 "HgN/A
2:30 am73 °FClear.10 mph38%29.68 "HgN/A
2:00 am75 °FClear.13 mph36%29.68 "HgN/A
1:00 am77 °FClear.9 mph34%29.68 "HgN/A
12:30 am77 °FClear.7 mph34%29.71 "HgN/A
12:00 am79 °FClear.10 mph32%29.71 "HgN/A
11:30 pm
Fri, Dec 2
79 °FClear.10 mph32%29.71 "HgN/A
11:00 pm81 °FClear.13 mph30%29.71 "HgN/A
10:00 pm81 °FClear.12 mph30%29.74 "HgN/A
9:00 pm81 °FClear.9 mph30%29.74 "HgN/A
8:30 pm81 °FClear.8 mph30%29.74 "HgN/A
8:00 pm82 °FClear.8 mph28%29.74 "HgN/A
7:30 pm82 °FClear.9 mph28%29.74 "HgN/A
7:00 pm84 °FClear.9 mph27%29.74 "HgN/A
Weather by CustomWeather, © 2016

See weather overviewHow to use our weather pages